• In Uzbekistan
  • List of Countries
  • For 7 days
  • Water Temperature
  • Satellite Maps
  • Weather Map
  • Weather Widgets
  • user-avatar
    Login

    Hourly Weather Córdoba

    Today, 17 November, Friday

    Time Temperature Precipitation Wind Pressure Humidity
    00:00 +17°C° 0 mm 3 mps 720 mmHg 34%
    01:00 +17°C° 0 mm 3 mps 720 mmHg 34%
    02:00 +17°C° 0 mm 3 mps 719 mmHg 36%
    03:00 +17°C° 0 mm 3 mps 719 mmHg 36%
    04:00 +16°C° 0 mm 3 mps 719 mmHg 36%
    05:00 +16°C° 0 mm 3 mps 719 mmHg 36%
    06:00 +18°C° 0 mm 3 mps 719 mmHg 32%
    07:00 +21°C° 0 mm 3 mps 720 mmHg 29%
    08:00 +25°C° 0 mm 3 mps 719 mmHg 26%
    09:00 +27°C° 0 mm 3 mps 720 mmHg 24%
    10:00 +29°C° 0 mm 4 mps 720 mmHg 21%
    11:00 +30°C° 0 mm 4 mps 720 mmHg 19%
    12:00 +32°C° 0 mm 5 mps 720 mmHg 20%
    13:00 +32°C° 0 mm 6 mps 719 mmHg 21%
    14:00 +32°C° 0 mm 7 mps 719 mmHg 22%
    15:00 +30°C° 0 mm 7 mps 719 mmHg 25%
    16:00 +29°C° 0 mm 8 mps 719 mmHg 29%
    17:00 +28°C° 0 mm 8 mps 719 mmHg 32%
    18:00 +26°C° 0 mm 7 mps 719 mmHg 31%
    19:00 +23°C° 0 mm 7 mps 720 mmHg 29%
    20:00 +21°C° 0 mm 6 mps 721 mmHg 28%
    21:00 +20°C° 0 mm 5 mps 722 mmHg 26%
    22:00 +19°C° 0 mm 5 mps 722 mmHg 23%
    23:00 +17°C° 0 mm 4 mps 723 mmHg 20%

    Tomorrow, 18 November, Saturday

    Time Temperature Precipitation Wind Pressure Humidity
    00:00 +17°C° 0 mm 4 mps 723 mmHg 21%
    01:00 +17°C° 0 mm 4 mps 723 mmHg 21%
    02:00 +17°C° 0 mm 4 mps 724 mmHg 22%
    03:00 +16°C° 0.2 mm 3 mps 724 mmHg 27%
    04:00 +14°C° 0.2 mm 3 mps 724 mmHg 33%
    05:00 +15°C° 0.2 mm 2 mps 724 mmHg 38%
    06:00 +15°C° 0.1 mm 2 mps 725 mmHg 36%
    07:00 +16°C° 0.1 mm 2 mps 725 mmHg 35%
    08:00 +17°C° 0.1 mm 2 mps 726 mmHg 33%
    09:00 +19°C° 0 mm 2 mps 725 mmHg 28%
    10:00 +23°C° 0 mm 2 mps 725 mmHg 23%
    11:00 +25°C° 0 mm 1 mps 725 mmHg 19%
    12:00 +26°C° 0 mm 2 mps 725 mmHg 18%
    13:00 +27°C° 0 mm 2 mps 724 mmHg 18%
    14:00 +28°C° 0 mm 3 mps 723 mmHg 17%
    15:00 +28°C° 0 mm 3 mps 722 mmHg 18%
    16:00 +28°C° 0 mm 4 mps 722 mmHg 19%
    17:00 +28°C° 0 mm 4 mps 721 mmHg 19%
    18:00 +25°C° 0 mm 3 mps 721 mmHg 23%
    19:00 +22°C° 0 mm 3 mps 721 mmHg 26%
    20:00 +20°C° 0 mm 2 mps 721 mmHg 29%
    21:00 +19°C° 0 mm 3 mps 721 mmHg 30%
    22:00 +19°C° 0 mm 3 mps 722 mmHg 31%
    23:00 +18°C° 0 mm 3 mps 722 mmHg 33%

    Day after tomorrow, 19 November, Sunday

    Time Temperature Precipitation Wind Pressure Humidity
    00:00 +18°C° 0 mm 3 mps 721 mmHg 34%
    01:00 +18°C° 0 mm 3 mps 721 mmHg 36%
    02:00 +18°C° 0 mm 4 mps 721 mmHg 38%
    03:00 +17°C° 0 mm 3 mps 721 mmHg 39%
    04:00 +17°C° 0 mm 3 mps 720 mmHg 40%
    05:00 +17°C° 0 mm 3 mps 720 mmHg 41%
    06:00 +20°C° 0 mm 3 mps 721 mmHg 36%
    07:00 +23°C° 0 mm 2 mps 722 mmHg 32%
    08:00 +26°C° 0 mm 2 mps 722 mmHg 27%
    09:00 +28°C° 0 mm 3 mps 722 mmHg 24%
    10:00 +30°C° 0 mm 3 mps 722 mmHg 20%
    11:00 +33°C° 0 mm 3 mps 722 mmHg 17%
    12:00 +33°C° 0 mm 3 mps 722 mmHg 16%
    13:00 +34°C° 0 mm 3 mps 721 mmHg 16%
    14:00 +34°C° 0 mm 4 mps 720 mmHg 15%
    15:00 +34°C° 0 mm 4 mps 719 mmHg 16%
    16:00 +34°C° 0 mm 4 mps 719 mmHg 17%
    17:00 +34°C° 0 mm 4 mps 718 mmHg 17%
    18:00 +30°C° 0 mm 4 mps 718 mmHg 21%
    19:00 +27°C° 0 mm 3 mps 718 mmHg 25%
    20:00 +25°C° 0 mm 2 mps 719 mmHg 29%
    21:00 +24°C° 0 mm 2 mps 719 mmHg 30%
    22:00 +21°C° 0 mm 2 mps 719 mmHg 32%
    23:00 +21°C° 0 mm 1 mps 720 mmHg 33%

    20 November, Monday

    Time Temperature Precipitation Wind Pressure Humidity
    00:00 +20°C° 0 mm 2 mps 720 mmHg 35%
    01:00 +19°C° 0 mm 2 mps 719 mmHg 36%
    02:00 +19°C° 0 mm 2 mps 719 mmHg 38%
    03:00 +18°C° 0 mm 2 mps 719 mmHg 41%
    04:00 +17°C° 0 mm 2 mps 719 mmHg 44%
    05:00 +17°C° 0 mm 2 mps 719 mmHg 46%
    06:00 +19°C° 0 mm 2 mps 719 mmHg 43%
    07:00 +21°C° 0 mm 2 mps 720 mmHg 40%
    08:00 +24°C° 0 mm 2 mps 720 mmHg 36%
    09:00 +27°C° 0 mm 3 mps 720 mmHg 32%
    10:00 +29°C° 0 mm 5 mps 720 mmHg 28%
    11:00 +33°C° 0 mm 6 mps 720 mmHg 24%
    12:00 +34°C° 0.1 mm 6 mps 719 mmHg 23%
    13:00 +35°C° 0.1 mm 6 mps 719 mmHg 21%
    14:00 +38°C° 0.1 mm 6 mps 718 mmHg 20%
    15:00 +35°C° 0.2 mm 6 mps 718 mmHg 23%
    16:00 +34°C° 0.2 mm 6 mps 717 mmHg 26%
    17:00 +33°C° 0.2 mm 5 mps 717 mmHg 29%
    18:00 +29°C° 0.4 mm 5 mps 718 mmHg 41%
    19:00 +25°C° 0.4 mm 5 mps 718 mmHg 53%
    20:00 +21°C° 0.4 mm 5 mps 719 mmHg 65%
    21:00 +21°C° 0.5 mm 5 mps 720 mmHg 69%
    22:00 +20°C° 0.5 mm 6 mps 721 mmHg 74%
    23:00 +19°C° 0.5 mm 6 mps 723 mmHg 78%

    21 November, Tuesday

    Time Temperature Precipitation Wind Pressure Humidity
    00:00 +19°C° 1.2 mm 6 mps 723 mmHg 79%
    01:00 +17°C° 1.2 mm 6 mps 723 mmHg 81%
    02:00 +17°C° 1.2 mm 5 mps 723 mmHg 82%
    03:00 +18°C° 0.8 mm 4 mps 723 mmHg 82%
    04:00 +17°C° 0.8 mm 4 mps 724 mmHg 82%
    05:00 +17°C° 0.8 mm 3 mps 724 mmHg 82%
    06:00 +17°C° 0.4 mm 3 mps 725 mmHg 79%
    07:00 +18°C° 0.4 mm 3 mps 725 mmHg 77%
    08:00 +18°C° 0.4 mm 3 mps 726 mmHg 74%
    09:00 +20°C° 0.1 mm 3 mps 726 mmHg 66%
    10:00 +21°C° 0.1 mm 3 mps 726 mmHg 57%
    11:00 +24°C° 0.1 mm 3 mps 726 mmHg 48%
    12:00 +25°C° 0.2 mm 3 mps 726 mmHg 45%
    13:00 +26°C° 0.2 mm 3 mps 725 mmHg 42%
    14:00 +27°C° 0.2 mm 3 mps 725 mmHg 39%
    15:00 +26°C° 0.1 mm 3 mps 724 mmHg 40%
    16:00 +26°C° 0.1 mm 3 mps 724 mmHg 41%
    17:00 +26°C° 0.1 mm 3 mps 724 mmHg 41%
    18:00 +24°C° 0 mm 3 mps 724 mmHg 48%
    19:00 +21°C° 0 mm 3 mps 725 mmHg 54%
    20:00 +20°C° 0 mm 2 mps 725 mmHg 60%
    21:00 +19°C° 0 mm 2 mps 725 mmHg 64%
    22:00 +18°C° 0 mm 2 mps 725 mmHg 68%
    23:00 +18°C° 0 mm 2 mps 726 mmHg 72%

    22 November, Wednesday

    Time Temperature Precipitation Wind Pressure Humidity
    00:00 +17°C° 0 mm 2 mps 725 mmHg 74%
    01:00 +17°C° 0 mm 2 mps 725 mmHg 76%
    02:00 +17°C° 0 mm 2 mps 725 mmHg 78%
    03:00 +17°C° 0 mm 2 mps 725 mmHg 79%
    04:00 +16°C° 0 mm 3 mps 725 mmHg 79%
    05:00 +16°C° 0 mm 3 mps 724 mmHg 80%
    06:00 +18°C° 0 mm 3 mps 725 mmHg 71%
    07:00 +20°C° 0 mm 4 mps 725 mmHg 62%
    08:00 +23°C° 0 mm 5 mps 725 mmHg 52%
    09:00 +26°C° 0 mm 5 mps 725 mmHg 46%
    10:00 +28°C° 0 mm 5 mps 725 mmHg 39%
    11:00 +30°C° 0 mm 5 mps 724 mmHg 32%
    12:00 +30°C° 0 mm 5 mps 724 mmHg 29%
    13:00 +32°C° 0 mm 5 mps 723 mmHg 26%
    14:00 +33°C° 0 mm 5 mps 722 mmHg 24%
    15:00 +33°C° 0 mm 5 mps 722 mmHg 24%
    16:00 +32°C° 0 mm 5 mps 721 mmHg 24%
    17:00 +32°C° 0 mm 5 mps 721 mmHg 24%
    18:00 +29°C° 0 mm 5 mps 721 mmHg 26%
    19:00 +27°C° 0 mm 4 mps 721 mmHg 29%
    20:00 +23°C° 0 mm 4 mps 721 mmHg 31%
    21:00 +22°C° 0 mm 3 mps 721 mmHg 33%
    22:00 +22°C° 0 mm 3 mps 721 mmHg 34%
    23:00 +21°C° 0 mm 3 mps 721 mmHg 35%
    Show more